Regional Weather Roundup
Issued by NWS

Home | Current Version | Previous Version | Text Only | Print | Product List | Glossary On
Versions: 1 2 3 4 5 6 7 8 9 10 11 12 13 14 15 16 17 18 19 20 21 22 23 24 25 26 27
000
ASUS44 KLIX 282113
RWRLA
LOUISIANA WEATHER ROUNDUP
NATIONAL WEATHER SERVICE NEW ORLEANS LA
400 PM CDT SUN MAY 28 2017

NOTE: "FAIR" INDICATES FEW OR NO CLOUDS BELOW 12,000 FEET WITH NO
      SIGNIFICANT WEATHER AND/OR OBSTRUCTIONS TO VISIBILITY.
      SKY/WX - SKY CONDITION AND SIGNIFICANT WEATHER.
      TMP - AIR TEMPERATURE.    DP   - DEWPOINT TEMPERATURE.
      RH  - RELATIVE HUMIDITY.  PRES - PRESSURE.
      HX  - HEAT INDEX.         WCI  - WIND CHILL INDEX.

*  THESE STATIONS ARE NOT NWS OR FAA STATIONS AND ARE NOT UNDER
   NWS QUALITY CONTROL.

LAZ040-048-061>063-065-066-069-282200-
SOUTHEAST LOUISIANA

CITY           SKY/WX    TMP DP  RH WIND       PRES   REMARKS
N.O. INTL ARPT MOSUNNY   87  71  58 NE12      29.95F
N.O. LAKEFRONT MOSUNNY   86  74  67 NE10      29.96F
N.O. DOWNTOWN*   N/A     88  73  61 N5          N/A  HX  95
RESERVE*       FAIR      88  73  61 E12       29.95F HX  96
SLIDELL        CLOUDY    84  69  60 E7        29.97F
BATON ROUGE    MOSUNNY   84  72  67 NE8       29.96F
BOOTHVILLE     CLOUDY    85  72  65 SE9       29.97F
BELLE CHASSE   PTSUNNY   88  73  61 S9        29.95F HX  95
BOGALUSA*      FAIR      85  66  53 SE7       30.00S
GALLIANO*      CLEAR     88  69  53 E7        29.95F
NEW ROADS*     FAIR      82  71  69 E8        29.96F
GONZALES*      FAIR      84  72  67 NE5       29.93F
HAMMOND*       MOSUNNY   84  64  51 E6        29.97F
HOUMA*         SUNNY     90  73  58 SE6       29.94F HAZE    HX  98
PORT FOURCHON* CLEAR     84  72  65 SE13G18   29.99R

$$

LAZ041-044-053-054-282200-
SOUTHWEST LOUISIANA

CITY           SKY/WX    TMP DP  RH WIND       PRES   REMARKS
LAKE CHARLES   LGT RAIN  81  78  91 SE7       29.95F FOG
LAFAYETTE      LGT RAIN  80  76  87 N3        29.96F
PATTERSON      MOSUNNY   88  76  67 S9        29.94F HX  99
SALT POINT       N/A     85  74  69 S6        29.93F
NEW IBERIA     PTSUNNY   89  71  55 S10       29.95F HX  95
CHENAULT AIRPK PTSUNNY   84  77  79 S10       29.95F

$$

LAZ027-028-282200-
CENTRAL LOUISIANA

CITY           SKY/WX    TMP DP  RH WIND       PRES   REMARKS
FORT POLK      PTSUNNY   86  73  64 E10       29.93F
ALEXANDRIA INT CLOUDY    83  70  64 SE10      29.93F
ALEXANDRIA     CLOUDY    82  70  66 SE9       29.95F

$$

LAZ001-002-282200-
NORTHWEST LOUISIANA

CITY           SKY/WX    TMP DP  RH WIND       PRES   REMARKS
SHREVEPORT     PTSUNNY   87  70  56 S13       29.90F
BARKSDALE AFB  MOSUNNY   88  68  51 S13       29.91F
DTN SHREVEPORT PTSUNNY   87  69  54 S12       29.91F

$$

LAZ014-016-282200-
NORTHEAST LOUISIANA

CITY           SKY/WX    TMP DP  RH WIND       PRES   REMARKS
MONROE         CLOUDY    83  69  62 SW14      29.94F
TALLULAH       CLOUDY    77  70  79 NW5       29.94R

$$





USA.gov is the U.S. government's official web portal to all federal, state and local government web resources and services.